Showing default

OPS 5712 (P/L 153), 2874

Orbit data source: Space-Track

OPS 5712 (P/L 153), 2874 is an American payload satellite in LEO that was launched on Wed, 31 May 1967 UTC via a THOR SLV-2 AGENA D launch vehicle from the Air Force Western Test Range (AFWTR). Payload-class satellites include a variety of spacecraft equipped with specific instruments for various scientific and technological missions. These include communications satellites like Starlink; space stations such as the ISS; scientific satellites like the Hubble; Earth observation satellites from companies like Planet Labs, Umbra, and HawkEye 360; GPS; miniature CubeSats for education and research; and military/defense satellites.

Loading next visibility...
Identifier
2874, 1967-053H
Orbit
LEO
Last TLE update
11 hours ago
Origin
Manufacturer
NRL
Mission
Operational Defense Sigint
Bus & Motor
NRL MULTI, Unknown motor
Mass
77 kg wet, 77 kg dry
Launch date (UTC)
1967-05-31 (58 years ago)
Launch vehicle
THOR SLV-2 AGENA D
Launch site
Air Force Western Test Range (AFWTR)
Object type
Payload
Rocket body
Debris
Shape & HBR
Ell + 1 Ant, 9.0 m
Radar Cross Section
1.399 m², Medium (>0.1 m² and < 1m²)

Expand to show TLE details & history

TLE from 11 hours ago
0 OPS 5712 (P/L 153)
1 02874U 67053H   25199.48771191  .00000002  00000-0  40035-4 0  9994
2 02874  69.9742 110.5260 0009975 270.1336  89.8627 13.96756009960187
Epoch: 2025-07-18T11:42Z
TLE epoch observation values (Epoch: 2025-07-18T11:42:18.309Z)
Latitude
0.00002°
Longitude
-1.58874°
Altitude
907.351 km
Speed
7.399 km/s
True Right ascension
07h 22m 06s
True Declination
0° 00' 00"
Sunlit
Object was in daylight at epoch
Visualization orbit readout
Latitude
-33.17513°
Longitude
-168.88943°
Altitude
912.653 km
Speed
7.397 km/s
Apparent Right ascension
21h 48m 41s
Apparent Declination
-39° 20' 50"
Sunlit
Object is in full shadow
Visualization observer readout
Local Sidereal Time
11:50:18
Azimuth
98.474° ESE
Elevation
-66.692°
Doppler factor
1
Orbital elements
Apogee altitude
910.358 km
Perigee altitude
895.832 km
Semi-major axis
7,281.232 km
Eccentricity
0.001
Inclination
69.9742°
RAAN
110.526°
Arg. of periapsis
270.1336°
True anomaly
89.97701°
Mean anomaly
89.8627°
Eccentric anomaly
89.91985°
Mean motion
3.4933 °/min
Orbital period
103.05 mins
BSTAR
0.000040035
Loading maneuver chart data...
Loading SW <> Apogee altitude chart data...
Loading historical data...
Loading historical data...
Loading historical data...
Loading historical data...
Loading historical data...
Loading historical data...
Loading historical data...
|